Year,Month,Day,Hour,Minute,Value (Times are PST for temperature in C)
2017,02,16,00,00,8.40
2017,02,16,00,01,8.40
2017,02,16,00,02,8.40
2017,02,16,00,03,8.30
2017,02,16,00,04,8.30
2017,02,16,00,05,8.30
2017,02,16,00,06,8.30
2017,02,16,00,07,8.30
2017,02,16,00,08,8.30
2017,02,16,00,09,8.30
2017,02,16,00,10,8.30
2017,02,16,00,11,8.30
2017,02,16,00,12,8.20
2017,02,16,00,13,8.20
2017,02,16,00,14,8.20
2017,02,16,00,15,8.20
2017,02,16,00,16,8.20
2017,02,16,00,17,8.20
2017,02,16,00,18,8.20
2017,02,16,00,19,8.20
2017,02,16,00,20,8.20
2017,02,16,00,21,8.20
2017,02,16,00,22,8.20
2017,02,16,00,23,8.20
2017,02,16,00,24,8.10
2017,02,16,00,25,8.10
2017,02,16,00,26,8.10
2017,02,16,00,27,8.10
2017,02,16,00,28,8.10
2017,02,16,00,29,8.10
2017,02,16,00,30,8.10
2017,02,16,00,31,8.10
2017,02,16,00,32,8.00
2017,02,16,00,33,8.00
2017,02,16,00,34,8.00
2017,02,16,00,35,8.00
2017,02,16,00,36,8.00
2017,02,16,00,37,8.00
2017,02,16,00,38,8.00
2017,02,16,00,39,8.00
2017,02,16,00,40,8.00
2017,02,16,00,41,8.00
2017,02,16,00,42,8.00
2017,02,16,00,43,8.00
2017,02,16,00,44,8.00
2017,02,16,00,45,8.00
2017,02,16,00,46,8.10
2017,02,16,00,47,8.10
2017,02,16,00,48,8.10
2017,02,16,00,49,8.10
2017,02,16,00,50,8.10
2017,02,16,00,51,8.10
2017,02,16,00,52,8.10
2017,02,16,00,53,8.10
2017,02,16,00,54,8.10
2017,02,16,00,55,8.10
2017,02,16,00,56,8.10
2017,02,16,00,57,8.10
2017,02,16,00,58,8.10
2017,02,16,00,59,8.10
2017,02,16,01,00,8.10
2017,02,16,01,01,8.10
2017,02,16,01,02,8.10
2017,02,16,01,03,8.10
2017,02,16,01,04,8.10
2017,02,16,01,05,8.10
2017,02,16,01,06,8.10
2017,02,16,01,07,8.10
2017,02,16,01,08,8.10
2017,02,16,01,09,8.10
2017,02,16,01,10,8.10
2017,02,16,01,11,8.10
2017,02,16,01,12,8.10
2017,02,16,01,13,8.10
2017,02,16,01,14,8.10
2017,02,16,01,15,8.10
2017,02,16,01,16,8.10
2017,02,16,01,17,8.20
2017,02,16,01,18,8.20
2017,02,16,01,19,8.20
2017,02,16,01,20,8.20
2017,02,16,01,21,8.20
2017,02,16,01,22,8.20
2017,02,16,01,23,8.20
2017,02,16,01,24,8.20
2017,02,16,01,25,8.20
2017,02,16,01,26,8.20
2017,02,16,01,27,8.20
2017,02,16,01,28,8.20
2017,02,16,01,29,8.10
2017,02,16,01,30,8.10
2017,02,16,01,31,8.10
2017,02,16,01,32,8.00
2017,02,16,01,33,8.00
2017,02,16,01,34,8.00
2017,02,16,01,35,7.90
2017,02,16,01,36,7.90
2017,02,16,01,37,7.90
2017,02,16,01,38,7.90
2017,02,16,01,39,7.80
2017,02,16,01,40,7.80
2017,02,16,01,41,7.80
2017,02,16,01,42,7.80
2017,02,16,01,43,7.80
2017,02,16,01,44,7.80
2017,02,16,01,45,7.80
2017,02,16,01,46,7.80
2017,02,16,01,47,7.70
2017,02,16,01,48,7.70
2017,02,16,01,49,7.60
2017,02,16,01,50,7.60
2017,02,16,01,51,7.70
2017,02,16,01,52,7.70
2017,02,16,01,53,7.70
2017,02,16,01,54,7.70
2017,02,16,01,55,7.70
2017,02,16,01,56,7.70
2017,02,16,01,57,7.60
2017,02,16,01,58,7.60
2017,02,16,01,59,7.60
2017,02,16,02,00,7.60
2017,02,16,02,01,7.60
2017,02,16,02,02,7.60
2017,02,16,02,03,7.60
2017,02,16,02,04,7.60
2017,02,16,02,05,7.60
2017,02,16,02,06,7.70
2017,02,16,02,07,7.70
2017,02,16,02,08,7.70
2017,02,16,02,09,7.80
2017,02,16,02,10,7.80
2017,02,16,02,11,7.80
2017,02,16,02,12,7.80
2017,02,16,02,13,7.80
2017,02,16,02,14,7.80
2017,02,16,02,15,7.80
2017,02,16,02,16,7.90
2017,02,16,02,17,7.90
2017,02,16,02,18,8.00
2017,02,16,02,19,8.10
2017,02,16,02,20,8.10
2017,02,16,02,21,8.20
2017,02,16,02,22,8.30
2017,02,16,02,23,8.40
2017,02,16,02,24,8.50
2017,02,16,02,25,8.50
2017,02,16,02,26,8.60
2017,02,16,02,27,8.70
2017,02,16,02,28,8.70
2017,02,16,02,29,8.70
2017,02,16,02,30,8.80
2017,02,16,02,31,8.90
2017,02,16,02,32,8.90
2017,02,16,02,33,9.00
2017,02,16,02,34,9.00
2017,02,16,02,35,9.00
2017,02,16,02,36,9.00
2017,02,16,02,37,9.00
2017,02,16,02,38,9.00
2017,02,16,02,39,9.00
2017,02,16,02,40,9.00
2017,02,16,02,41,9.00
2017,02,16,02,42,9.00
2017,02,16,02,43,9.00
2017,02,16,02,44,9.00
2017,02,16,02,45,9.00
2017,02,16,02,46,9.00
2017,02,16,02,47,9.00
2017,02,16,02,48,9.00
2017,02,16,02,49,9.00
2017,02,16,02,50,9.10
2017,02,16,02,51,9.10
2017,02,16,02,52,9.10
2017,02,16,02,53,9.10
2017,02,16,02,54,9.00
2017,02,16,02,55,9.00
2017,02,16,02,56,9.00
2017,02,16,02,57,9.00
2017,02,16,02,58,8.90
2017,02,16,02,59,8.90
2017,02,16,03,00,8.90
2017,02,16,03,01,8.90
2017,02,16,03,02,8.90
2017,02,16,03,03,8.90
2017,02,16,03,04,8.90
2017,02,16,03,05,8.90
2017,02,16,03,06,8.90
2017,02,16,03,07,8.90
2017,02,16,03,08,8.90
2017,02,16,03,09,9.00
2017,02,16,03,10,9.00
2017,02,16,03,11,9.00
2017,02,16,03,12,9.00
2017,02,16,03,13,9.00
2017,02,16,03,14,9.00
2017,02,16,03,15,9.00
2017,02,16,03,16,9.00
2017,02,16,03,17,9.00
2017,02,16,03,18,9.00
2017,02,16,03,19,9.00
2017,02,16,03,20,9.10
2017,02,16,03,21,9.10
2017,02,16,03,22,9.10
2017,02,16,03,23,9.00
2017,02,16,03,24,9.00
2017,02,16,03,25,9.00
2017,02,16,03,26,9.00
2017,02,16,03,27,9.00
2017,02,16,03,28,9.00
2017,02,16,03,29,9.00
2017,02,16,03,30,9.00
2017,02,16,03,31,9.00
2017,02,16,03,32,9.00
2017,02,16,03,33,9.00
2017,02,16,03,34,8.90
2017,02,16,03,35,8.90
2017,02,16,03,36,8.90
2017,02,16,03,37,8.90
2017,02,16,03,38,8.90
2017,02,16,03,39,9.00
2017,02,16,03,40,9.00
2017,02,16,03,41,9.00
2017,02,16,03,42,9.00
2017,02,16,03,43,9.00
2017,02,16,03,44,9.00
2017,02,16,03,45,9.00
2017,02,16,03,46,9.00
2017,02,16,03,47,9.10
2017,02,16,03,48,9.10
2017,02,16,03,49,9.10
2017,02,16,03,50,9.10
2017,02,16,03,51,9.10
2017,02,16,03,52,9.20
2017,02,16,03,53,9.20
2017,02,16,03,54,9.20
2017,02,16,03,55,9.20
2017,02,16,03,56,9.20
2017,02,16,03,57,9.20
2017,02,16,03,58,9.20
2017,02,16,03,59,9.20
2017,02,16,04,00,9.20
2017,02,16,04,01,9.20
2017,02,16,04,02,9.20
2017,02,16,04,03,9.20
2017,02,16,04,04,9.20
2017,02,16,04,05,9.30
2017,02,16,04,06,9.30
2017,02,16,04,07,9.30
2017,02,16,04,08,9.30
2017,02,16,04,09,9.30
2017,02,16,04,10,9.30
2017,02,16,04,11,9.30
2017,02,16,04,12,9.30
2017,02,16,04,13,9.30
2017,02,16,04,14,9.30
2017,02,16,04,15,9.30
2017,02,16,04,16,9.20
2017,02,16,04,17,9.20
2017,02,16,04,18,9.20
2017,02,16,04,19,9.20
2017,02,16,04,20,9.20
2017,02,16,04,21,9.20
2017,02,16,04,22,9.20
2017,02,16,04,23,9.20
2017,02,16,04,24,9.20
2017,02,16,04,25,9.20
2017,02,16,04,26,9.20
2017,02,16,04,27,9.20
2017,02,16,04,28,9.20
2017,02,16,04,29,9.30
2017,02,16,04,30,9.30
2017,02,16,04,31,9.20
2017,02,16,04,32,9.20
2017,02,16,04,33,9.20
2017,02,16,04,34,9.20
2017,02,16,04,35,9.20
2017,02,16,04,36,9.20
2017,02,16,04,37,9.20
2017,02,16,04,38,9.20
2017,02,16,04,39,9.20
2017,02,16,04,40,9.20
2017,02,16,04,41,9.20
2017,02,16,04,42,9.20
2017,02,16,04,43,9.20
2017,02,16,04,44,9.20
2017,02,16,04,45,9.20
2017,02,16,04,46,9.20
2017,02,16,04,47,9.20
2017,02,16,04,48,9.20
2017,02,16,04,49,9.20
2017,02,16,04,50,9.20
2017,02,16,04,51,9.20
2017,02,16,04,52,9.20
2017,02,16,04,53,9.20
2017,02,16,04,54,9.20
2017,02,16,04,55,9.20
2017,02,16,04,56,9.10
2017,02,16,04,57,9.10
2017,02,16,04,58,9.10
2017,02,16,04,59,9.10
2017,02,16,05,00,9.10
2017,02,16,05,01,9.20
2017,02,16,05,02,9.20
2017,02,16,05,03,9.10
2017,02,16,05,04,9.10
2017,02,16,05,05,9.10
2017,02,16,05,06,9.10
2017,02,16,05,07,9.10
2017,02,16,05,08,9.10
2017,02,16,05,09,9.10
2017,02,16,05,10,9.10
2017,02,16,05,11,9.00
2017,02,16,05,12,9.00
2017,02,16,05,13,9.00
2017,02,16,05,14,9.00
2017,02,16,05,15,9.00
2017,02,16,05,16,9.00
2017,02,16,05,17,9.00
2017,02,16,05,18,9.00
2017,02,16,05,19,9.00
2017,02,16,05,20,8.90
2017,02,16,05,21,8.90
2017,02,16,05,22,8.90
2017,02,16,05,23,8.90
2017,02,16,05,24,8.90
2017,02,16,05,25,8.90
2017,02,16,05,26,8.90
2017,02,16,05,27,8.90
2017,02,16,05,28,8.90
2017,02,16,05,29,8.80
2017,02,16,05,30,8.80
2017,02,16,05,31,8.80
2017,02,16,05,32,8.80
2017,02,16,05,33,8.80
2017,02,16,05,34,8.80
2017,02,16,05,35,8.80
2017,02,16,05,36,8.80
2017,02,16,05,37,8.80
2017,02,16,05,38,8.80
2017,02,16,05,39,8.80
2017,02,16,05,40,8.80
2017,02,16,05,41,8.80
2017,02,16,05,42,8.80
2017,02,16,05,43,8.80
2017,02,16,05,44,8.80
2017,02,16,05,45,8.80
2017,02,16,05,46,8.80
2017,02,16,05,47,8.80
2017,02,16,05,48,8.80
2017,02,16,05,49,8.80
2017,02,16,05,50,8.80
2017,02,16,05,51,8.80
2017,02,16,05,52,8.70
2017,02,16,05,53,8.70
2017,02,16,05,54,8.70
2017,02,16,05,55,8.70
2017,02,16,05,56,8.70
2017,02,16,05,57,8.70
2017,02,16,05,58,8.70
2017,02,16,05,59,8.70
2017,02,16,06,00,8.70
2017,02,16,06,01,8.70
2017,02,16,06,02,8.70
2017,02,16,06,03,8.70
2017,02,16,06,04,8.70
2017,02,16,06,05,8.70
2017,02,16,06,06,8.70
2017,02,16,06,07,8.70
2017,02,16,06,08,8.70
2017,02,16,06,09,8.70
2017,02,16,06,10,8.70
2017,02,16,06,11,8.70
2017,02,16,06,12,8.60
2017,02,16,06,13,8.60
2017,02,16,06,14,8.60
2017,02,16,06,15,8.60
2017,02,16,06,16,8.60
2017,02,16,06,17,8.60
2017,02,16,06,18,8.60
2017,02,16,06,19,8.60
2017,02,16,06,20,8.60
2017,02,16,06,21,8.60
2017,02,16,06,22,8.60
2017,02,16,06,23,8.60
2017,02,16,06,24,8.60
2017,02,16,06,25,8.60
2017,02,16,06,26,8.60
2017,02,16,06,27,8.60
2017,02,16,06,28,8.60
2017,02,16,06,29,8.60
2017,02,16,06,30,8.60
2017,02,16,06,31,8.60
2017,02,16,06,32,8.60
2017,02,16,06,33,8.60
2017,02,16,06,34,8.50
2017,02,16,06,35,8.50
2017,02,16,06,36,8.50
2017,02,16,06,37,8.50
2017,02,16,06,38,8.60
2017,02,16,06,39,8.60
2017,02,16,06,40,8.60
2017,02,16,06,41,8.60
2017,02,16,06,42,8.60
2017,02,16,06,43,8.50
2017,02,16,06,44,8.50
2017,02,16,06,45,8.50
2017,02,16,06,46,8.40
2017,02,16,06,47,8.40
2017,02,16,06,48,8.40
2017,02,16,06,49,8.40
2017,02,16,06,50,8.40
2017,02,16,06,51,8.30
2017,02,16,06,52,8.30
2017,02,16,06,53,8.30
2017,02,16,06,54,8.20
2017,02,16,06,55,8.20
2017,02,16,06,56,8.20
2017,02,16,06,57,8.20
2017,02,16,06,58,8.20
2017,02,16,06,59,8.20
2017,02,16,07,00,8.20
2017,02,16,07,01,8.20
2017,02,16,07,02,8.20
2017,02,16,07,03,8.20
2017,02,16,07,04,8.20
2017,02,16,07,05,8.30
2017,02,16,07,06,8.30
2017,02,16,07,07,8.30
2017,02,16,07,08,8.40
2017,02,16,07,09,8.40
2017,02,16,07,10,8.40
2017,02,16,07,11,8.40
2017,02,16,07,12,8.40
2017,02,16,07,13,8.40
2017,02,16,07,14,8.50
2017,02,16,07,15,8.50
2017,02,16,07,16,8.50
2017,02,16,07,17,8.40
2017,02,16,07,18,8.40
2017,02,16,07,19,8.40
2017,02,16,07,20,8.40
2017,02,16,07,21,8.40
2017,02,16,07,22,8.40
2017,02,16,07,23,8.40
2017,02,16,07,24,8.40
2017,02,16,07,25,8.40
2017,02,16,07,26,8.40
2017,02,16,07,27,8.40
2017,02,16,07,28,8.30
2017,02,16,07,29,8.30
2017,02,16,07,30,8.30
2017,02,16,07,31,8.30
2017,02,16,07,32,8.30
2017,02,16,07,33,8.40
2017,02,16,07,34,8.40
2017,02,16,07,35,8.40
2017,02,16,07,36,8.40
2017,02,16,07,37,8.40
2017,02,16,07,38,8.40
2017,02,16,07,39,8.40
2017,02,16,07,40,8.40
2017,02,16,07,41,8.40
2017,02,16,07,42,8.40
2017,02,16,07,43,8.40
2017,02,16,07,44,8.40
2017,02,16,07,45,8.40
2017,02,16,07,46,8.40
2017,02,16,07,47,8.40
2017,02,16,07,48,8.30
2017,02,16,07,49,8.30
2017,02,16,07,50,8.30
2017,02,16,07,51,8.30
2017,02,16,07,52,8.30
2017,02,16,07,53,8.30
2017,02,16,07,54,8.30
2017,02,16,07,55,8.30
2017,02,16,07,56,8.30
2017,02,16,07,57,8.30
2017,02,16,07,58,8.30
2017,02,16,07,59,8.30
2017,02,16,08,00,8.20
2017,02,16,08,01,8.20
2017,02,16,08,02,8.20
2017,02,16,08,03,8.20
2017,02,16,08,04,8.20
2017,02,16,08,05,8.20
2017,02,16,08,06,8.20
2017,02,16,08,07,8.20
2017,02,16,08,08,8.20
2017,02,16,08,09,8.20
2017,02,16,08,10,8.20
2017,02,16,08,11,8.20
2017,02,16,08,12,8.20
2017,02,16,08,13,8.20
2017,02,16,08,14,8.20
2017,02,16,08,15,8.30
2017,02,16,08,16,8.30
2017,02,16,08,17,8.30
2017,02,16,08,18,8.40
2017,02,16,08,19,8.40
2017,02,16,08,20,8.40
2017,02,16,08,21,8.40
2017,02,16,08,22,8.40
2017,02,16,08,23,8.40
2017,02,16,08,24,8.50
2017,02,16,08,25,8.50
2017,02,16,08,26,8.50
2017,02,16,08,27,8.50
2017,02,16,08,28,8.60
2017,02,16,08,29,8.60
2017,02,16,08,30,8.60
2017,02,16,08,31,8.60
2017,02,16,08,32,8.70
2017,02,16,08,33,8.70
2017,02,16,08,34,8.70
2017,02,16,08,35,8.70
2017,02,16,08,36,8.70
2017,02,16,08,37,8.70
2017,02,16,08,38,8.70
2017,02,16,08,39,8.70
2017,02,16,08,40,8.70
2017,02,16,08,41,8.70
2017,02,16,08,42,8.70
2017,02,16,08,43,8.70
2017,02,16,08,44,8.70
2017,02,16,08,45,8.70
2017,02,16,08,46,8.70
2017,02,16,08,47,8.70
2017,02,16,08,48,8.70
2017,02,16,08,49,8.70
2017,02,16,08,50,8.70
2017,02,16,08,51,8.70
2017,02,16,08,52,8.70
2017,02,16,08,53,8.70
2017,02,16,08,54,8.70
2017,02,16,08,55,8.70
2017,02,16,08,56,8.70
2017,02,16,08,57,8.70
2017,02,16,08,58,8.70
2017,02,16,08,59,8.70
2017,02,16,09,00,8.70
2017,02,16,09,01,8.60
2017,02,16,09,02,8.60
2017,02,16,09,03,8.60
2017,02,16,09,04,8.70
2017,02,16,09,05,8.70
2017,02,16,09,06,8.70
2017,02,16,09,07,8.70
2017,02,16,09,08,8.70
2017,02,16,09,09,8.70
2017,02,16,09,10,8.70
2017,02,16,09,11,8.70
2017,02,16,09,12,8.70
2017,02,16,09,13,8.70
2017,02,16,09,14,8.70
2017,02,16,09,15,8.70
2017,02,16,09,16,8.70
2017,02,16,09,17,8.70
2017,02,16,09,18,8.70
2017,02,16,09,19,8.70
2017,02,16,09,20,8.70
2017,02,16,09,21,8.70
2017,02,16,09,22,8.70
2017,02,16,09,23,8.70
2017,02,16,09,24,8.70
2017,02,16,09,25,8.70
2017,02,16,09,26,8.70
2017,02,16,09,27,8.70
2017,02,16,09,28,8.70
2017,02,16,09,29,8.70
2017,02,16,09,30,8.70
2017,02,16,09,31,8.80
2017,02,16,09,32,8.80
2017,02,16,09,33,8.80
2017,02,16,09,34,8.80
2017,02,16,09,35,8.80
2017,02,16,09,36,8.80
2017,02,16,09,37,8.80
2017,02,16,09,38,8.80
2017,02,16,09,39,8.80
2017,02,16,09,40,8.80
2017,02,16,09,41,8.80
2017,02,16,09,42,8.80
2017,02,16,09,43,8.80
2017,02,16,09,44,8.80
2017,02,16,09,45,8.80
2017,02,16,09,46,8.80
2017,02,16,09,47,8.90
2017,02,16,09,48,8.80
2017,02,16,09,49,8.80
2017,02,16,09,50,8.80
2017,02,16,09,51,8.80
2017,02,16,09,52,8.80
2017,02,16,09,53,8.90
2017,02,16,09,54,8.90
2017,02,16,09,55,8.90
2017,02,16,09,56,8.90
2017,02,16,09,57,8.90
2017,02,16,09,58,8.90
2017,02,16,09,59,8.90
2017,02,16,10,00,8.90
2017,02,16,10,01,8.90
2017,02,16,10,02,8.90
2017,02,16,10,03,8.90
2017,02,16,10,04,8.90
2017,02,16,10,05,8.90
2017,02,16,10,06,8.90
2017,02,16,10,07,8.90
2017,02,16,10,08,8.90
2017,02,16,10,09,9.00
2017,02,16,10,10,9.00
2017,02,16,10,11,9.00
2017,02,16,10,12,9.00
2017,02,16,10,13,9.00
2017,02,16,10,14,9.00
2017,02,16,10,15,9.00
2017,02,16,10,16,9.00
2017,02,16,10,17,9.00
2017,02,16,10,18,9.00
2017,02,16,10,19,9.00
2017,02,16,10,20,9.00
2017,02,16,10,21,9.00
2017,02,16,10,22,9.00
2017,02,16,10,23,9.00
2017,02,16,10,24,9.00
2017,02,16,10,25,9.00
2017,02,16,10,26,9.00
2017,02,16,10,27,9.00
2017,02,16,10,28,9.10
2017,02,16,10,29,9.10
2017,02,16,10,30,9.10
2017,02,16,10,31,9.10
2017,02,16,10,32,9.10
2017,02,16,10,33,9.10
2017,02,16,10,34,9.10
2017,02,16,10,35,9.10
2017,02,16,10,36,9.10
2017,02,16,10,37,9.10
2017,02,16,10,38,9.20
2017,02,16,10,39,9.20
2017,02,16,10,40,9.20
2017,02,16,10,41,9.20
2017,02,16,10,42,9.20
2017,02,16,10,43,9.20
2017,02,16,10,44,9.20
2017,02,16,10,45,9.20
2017,02,16,10,46,9.20
2017,02,16,10,47,9.20
2017,02,16,10,48,9.20
2017,02,16,10,49,9.20
2017,02,16,10,50,9.20
2017,02,16,10,51,9.20
2017,02,16,10,52,9.20
2017,02,16,10,53,9.20
2017,02,16,10,54,9.20
2017,02,16,10,55,9.30
2017,02,16,10,56,9.30
2017,02,16,10,57,9.30
2017,02,16,10,58,9.30
2017,02,16,10,59,9.30
2017,02,16,11,00,9.30
2017,02,16,11,01,9.30
2017,02,16,11,02,9.30
2017,02,16,11,03,9.30
2017,02,16,11,04,9.40
2017,02,16,11,05,9.40
2017,02,16,11,06,9.40
2017,02,16,11,07,9.40
2017,02,16,11,08,9.40
2017,02,16,11,09,9.40
2017,02,16,11,10,9.40
2017,02,16,11,11,9.40
2017,02,16,11,12,9.40
2017,02,16,11,13,9.40
2017,02,16,11,14,9.40
2017,02,16,11,15,9.40
2017,02,16,11,16,9.50
2017,02,16,11,17,9.50
2017,02,16,11,18,9.50
2017,02,16,11,19,9.50
2017,02,16,11,20,9.50
2017,02,16,11,21,9.50
2017,02,16,11,22,9.50
2017,02,16,11,23,9.60
2017,02,16,11,24,9.60
2017,02,16,11,25,9.60
2017,02,16,11,26,9.60
2017,02,16,11,27,9.60
2017,02,16,11,28,9.50
2017,02,16,11,29,9.50
2017,02,16,11,30,9.50
2017,02,16,11,31,9.50
2017,02,16,11,32,9.60
2017,02,16,11,33,9.60
2017,02,16,11,34,9.60
2017,02,16,11,35,9.60
2017,02,16,11,36,9.60
2017,02,16,11,37,9.60
2017,02,16,11,38,9.60
2017,02,16,11,39,9.60
2017,02,16,11,40,9.60
2017,02,16,11,41,9.60
2017,02,16,11,42,9.60
2017,02,16,11,43,9.60
2017,02,16,11,44,9.60
2017,02,16,11,45,9.60
2017,02,16,11,46,9.60
2017,02,16,11,47,9.60
2017,02,16,11,48,9.60
2017,02,16,11,49,9.60
2017,02,16,11,50,9.60
2017,02,16,11,51,9.70
2017,02,16,11,52,9.70
2017,02,16,11,53,9.70
2017,02,16,11,54,9.70
2017,02,16,11,55,9.70
2017,02,16,11,56,9.70
2017,02,16,11,57,9.70
2017,02,16,11,58,9.70
2017,02,16,11,59,9.70
2017,02,16,12,00,9.70
2017,02,16,12,01,9.70
2017,02,16,12,02,9.70
2017,02,16,12,03,9.80
2017,02,16,12,04,9.80
2017,02,16,12,05,9.80
2017,02,16,12,06,9.80
2017,02,16,12,07,9.80
2017,02,16,12,08,9.90
2017,02,16,12,09,9.90
2017,02,16,12,10,9.90
2017,02,16,12,11,9.90
2017,02,16,12,12,10.00
2017,02,16,12,13,10.10
2017,02,16,12,14,10.10
2017,02,16,12,15,10.20
2017,02,16,12,16,10.20
2017,02,16,12,17,10.30
2017,02,16,12,18,10.30
2017,02,16,12,19,10.40
2017,02,16,12,20,10.40
2017,02,16,12,21,10.40
2017,02,16,12,22,10.30
2017,02,16,12,23,10.30
2017,02,16,12,24,10.30
2017,02,16,12,25,10.20
2017,02,16,12,26,10.20
2017,02,16,12,27,10.20
2017,02,16,12,28,10.20
2017,02,16,12,29,10.10
2017,02,16,12,30,10.10
2017,02,16,12,31,10.10
2017,02,16,12,32,10.10
2017,02,16,12,33,10.10
2017,02,16,12,34,10.10
2017,02,16,12,35,10.10
2017,02,16,12,36,10.10
2017,02,16,12,37,10.10
2017,02,16,12,38,10.10
2017,02,16,12,39,10.20
2017,02,16,12,40,10.20
2017,02,16,12,41,10.30
2017,02,16,12,42,10.30
2017,02,16,12,43,10.30
2017,02,16,12,44,10.40
2017,02,16,12,45,10.40
2017,02,16,12,46,10.40
2017,02,16,12,47,10.50
2017,02,16,12,48,10.60
2017,02,16,12,49,10.60
2017,02,16,12,50,10.60
2017,02,16,12,51,10.60
2017,02,16,12,52,10.60
2017,02,16,12,53,10.60
2017,02,16,12,54,10.60
2017,02,16,12,55,10.60
2017,02,16,12,56,10.60
2017,02,16,12,57,10.70
2017,02,16,12,58,10.70
2017,02,16,12,59,10.70
2017,02,16,13,00,10.70
2017,02,16,13,01,10.70
2017,02,16,13,02,10.60
2017,02,16,13,03,10.60
2017,02,16,13,04,10.60
2017,02,16,13,05,10.60
2017,02,16,13,06,10.50
2017,02,16,13,07,10.40
2017,02,16,13,08,10.40
2017,02,16,13,09,10.40
2017,02,16,13,10,10.40
2017,02,16,13,11,10.40
2017,02,16,13,12,10.30
2017,02,16,13,13,10.30
2017,02,16,13,14,10.30
2017,02,16,13,15,10.30
2017,02,16,13,16,10.30
2017,02,16,13,17,10.30
2017,02,16,13,18,10.30
2017,02,16,13,19,10.30
2017,02,16,13,20,10.30
2017,02,16,13,21,10.30
2017,02,16,13,22,10.40
2017,02,16,13,23,10.40
2017,02,16,13,24,10.40
2017,02,16,13,25,10.40
2017,02,16,13,26,10.40
2017,02,16,13,27,10.40
2017,02,16,13,28,10.50
2017,02,16,13,29,10.60
2017,02,16,13,30,10.60
2017,02,16,13,31,10.60
2017,02,16,13,32,10.60
2017,02,16,13,33,10.60
2017,02,16,13,34,10.60
2017,02,16,13,35,10.60
2017,02,16,13,36,10.60
2017,02,16,13,37,10.60
2017,02,16,13,38,10.60
2017,02,16,13,39,10.60
2017,02,16,13,40,10.60
2017,02,16,13,41,10.60
2017,02,16,13,42,10.60
2017,02,16,13,43,10.70
2017,02,16,13,44,10.70
2017,02,16,13,45,10.80
2017,02,16,13,46,10.90
2017,02,16,13,47,10.90
2017,02,16,13,48,10.90
2017,02,16,13,49,10.90
2017,02,16,13,50,11.00
2017,02,16,13,51,11.10
2017,02,16,13,52,11.10
2017,02,16,13,53,11.20
2017,02,16,13,54,11.30
2017,02,16,13,55,11.30
2017,02,16,13,56,11.40
2017,02,16,13,57,11.40
2017,02,16,13,58,11.40
2017,02,16,13,59,11.40
2017,02,16,14,00,11.40
2017,02,16,14,01,11.30
2017,02,16,14,02,11.30
2017,02,16,14,03,11.20
2017,02,16,14,04,11.20
2017,02,16,14,05,11.10
2017,02,16,14,06,11.10
2017,02,16,14,07,11.00
2017,02,16,14,08,10.90
2017,02,16,14,09,10.90
2017,02,16,14,10,10.80
2017,02,16,14,11,10.70
2017,02,16,14,12,10.60
2017,02,16,14,13,10.60
2017,02,16,14,14,10.50
2017,02,16,14,15,10.40
2017,02,16,14,16,10.30
2017,02,16,14,17,10.30
2017,02,16,14,18,10.30
2017,02,16,14,19,10.30
2017,02,16,14,20,10.20
2017,02,16,14,21,10.20
2017,02,16,14,22,10.20
2017,02,16,14,23,10.30
2017,02,16,14,24,10.40
2017,02,16,14,25,10.40
2017,02,16,14,26,10.50
2017,02,16,14,27,10.60
2017,02,16,14,28,10.70
2017,02,16,14,29,10.80
2017,02,16,14,30,10.90
2017,02,16,14,31,10.90
2017,02,16,14,32,10.90
2017,02,16,14,33,11.00
2017,02,16,14,34,11.10
2017,02,16,14,35,11.10
2017,02,16,14,36,11.10
2017,02,16,14,37,11.10
2017,02,16,14,38,11.20
2017,02,16,14,39,11.20
2017,02,16,14,40,11.20
2017,02,16,14,41,11.10
2017,02,16,14,42,11.10
2017,02,16,14,43,11.10
2017,02,16,14,44,11.10
2017,02,16,14,45,11.10
2017,02,16,14,46,11.10
2017,02,16,14,47,11.10
2017,02,16,14,48,11.20
2017,02,16,14,49,11.20
2017,02,16,14,50,11.30
2017,02,16,14,51,11.30
2017,02,16,14,52,11.30
2017,02,16,14,53,11.20
2017,02,16,14,54,11.20
2017,02,16,14,55,11.20
2017,02,16,14,56,11.20
2017,02,16,14,57,11.20
2017,02,16,14,58,11.30
2017,02,16,14,59,11.30
2017,02,16,15,00,11.40
2017,02,16,15,01,11.40
2017,02,16,15,02,11.40
2017,02,16,15,03,11.50
2017,02,16,15,04,11.60
2017,02,16,15,05,11.60
2017,02,16,15,06,11.60
2017,02,16,15,07,11.60
2017,02,16,15,08,11.60
2017,02,16,15,09,11.60
2017,02,16,15,10,11.60
2017,02,16,15,11,11.60
2017,02,16,15,12,11.60
2017,02,16,15,13,11.60
2017,02,16,15,14,11.60
2017,02,16,15,15,11.60
2017,02,16,15,16,11.60
2017,02,16,15,17,11.60
2017,02,16,15,18,11.50
2017,02,16,15,19,11.40
2017,02,16,15,20,11.30
2017,02,16,15,21,11.20
2017,02,16,15,22,11.20
2017,02,16,15,23,11.10
2017,02,16,15,24,11.10
2017,02,16,15,25,10.90
2017,02,16,15,26,10.90
2017,02,16,15,27,10.90
2017,02,16,15,28,10.90
2017,02,16,15,29,10.80
2017,02,16,15,30,10.70
2017,02,16,15,31,10.70
2017,02,16,15,32,10.60
2017,02,16,15,33,10.60
2017,02,16,15,34,10.60
2017,02,16,15,35,10.60
2017,02,16,15,36,10.70
2017,02,16,15,37,10.70
2017,02,16,15,38,10.70
2017,02,16,15,39,10.80
2017,02,16,15,40,10.90
2017,02,16,15,41,10.90
2017,02,16,15,42,10.90
2017,02,16,15,43,10.90
2017,02,16,15,44,10.90
2017,02,16,15,45,10.90
2017,02,16,15,46,10.90
2017,02,16,15,47,10.90
2017,02,16,15,48,10.90
2017,02,16,15,49,10.80
2017,02,16,15,50,10.80
2017,02,16,15,51,10.70
2017,02,16,15,52,10.60
2017,02,16,15,53,10.60
2017,02,16,15,54,10.50
2017,02,16,15,55,10.40
2017,02,16,15,56,10.40
2017,02,16,15,57,10.40
2017,02,16,15,58,10.40
2017,02,16,15,59,10.30
2017,02,16,16,00,10.30
2017,02,16,16,01,10.30
2017,02,16,16,02,10.30
2017,02,16,16,03,10.30
2017,02,16,16,04,10.30
2017,02,16,16,05,10.30
2017,02,16,16,06,10.30
2017,02,16,16,07,10.30
2017,02,16,16,08,10.30
2017,02,16,16,09,10.30
2017,02,16,16,10,10.20
2017,02,16,16,11,10.20
2017,02,16,16,12,10.20
2017,02,16,16,13,10.20
2017,02,16,16,14,10.20
2017,02,16,16,15,10.30
2017,02,16,16,16,10.20
2017,02,16,16,17,10.20
2017,02,16,16,18,10.20
2017,02,16,16,19,10.20
2017,02,16,16,20,10.30
2017,02,16,16,21,10.30
2017,02,16,16,22,10.20
2017,02,16,16,23,10.20
2017,02,16,16,24,10.10
2017,02,16,16,25,10.10
2017,02,16,16,26,10.00
2017,02,16,16,27,9.90
2017,02,16,16,28,9.90
2017,02,16,16,29,9.90
2017,02,16,16,30,9.80
2017,02,16,16,31,9.80
2017,02,16,16,32,9.70
2017,02,16,16,33,9.70
2017,02,16,16,34,9.70
2017,02,16,16,35,9.70
2017,02,16,16,36,9.60
2017,02,16,16,37,9.60
2017,02,16,16,38,9.60
2017,02,16,16,39,9.60
2017,02,16,16,40,9.50
2017,02,16,16,41,9.50
2017,02,16,16,42,9.50
2017,02,16,16,43,9.50
2017,02,16,16,44,9.50
2017,02,16,16,45,9.50
2017,02,16,16,46,9.50
2017,02,16,16,47,9.50
2017,02,16,16,48,9.50
2017,02,16,16,49,9.50
2017,02,16,16,50,9.50
2017,02,16,16,51,9.50
2017,02,16,16,52,9.50
2017,02,16,16,53,9.50
2017,02,16,16,54,9.50
2017,02,16,16,55,9.50
2017,02,16,16,56,9.40
2017,02,16,16,57,9.40
2017,02,16,16,58,9.40
2017,02,16,16,59,9.40
2017,02,16,17,00,9.40
2017,02,16,17,01,9.40
2017,02,16,17,02,9.30
2017,02,16,17,03,9.30
2017,02,16,17,04,9.30
2017,02,16,17,05,9.30
2017,02,16,17,06,9.20
2017,02,16,17,07,9.20
2017,02,16,17,08,9.20
2017,02,16,17,09,9.20
2017,02,16,17,10,9.20
2017,02,16,17,11,9.20
2017,02,16,17,12,9.20
2017,02,16,17,13,9.20
2017,02,16,17,14,9.20
2017,02,16,17,15,9.20
2017,02,16,17,16,9.20
2017,02,16,17,17,9.20
2017,02,16,17,18,9.10
2017,02,16,17,19,9.10
2017,02,16,17,20,9.10
2017,02,16,17,21,9.10
2017,02,16,17,22,9.00
2017,02,16,17,23,9.00
2017,02,16,17,24,9.00
2017,02,16,17,25,9.00
2017,02,16,17,26,9.00
2017,02,16,17,27,9.00
2017,02,16,17,28,8.90
2017,02,16,17,29,8.90
2017,02,16,17,30,8.90
2017,02,16,17,31,8.90
2017,02,16,17,32,8.90
2017,02,16,17,33,8.90
2017,02,16,17,34,8.90
2017,02,16,17,35,8.90
2017,02,16,17,36,8.90
2017,02,16,17,37,8.80
2017,02,16,17,38,8.80
2017,02,16,17,39,8.80
2017,02,16,17,40,8.80
2017,02,16,17,41,8.80
2017,02,16,17,42,8.80
2017,02,16,17,43,8.80
2017,02,16,17,44,8.70
2017,02,16,17,45,8.70
2017,02,16,17,46,8.70
2017,02,16,17,47,8.70
2017,02,16,17,48,8.70
2017,02,16,17,49,8.70
2017,02,16,17,50,8.70
2017,02,16,17,51,8.70
2017,02,16,17,52,8.70
2017,02,16,17,53,8.70
2017,02,16,17,54,8.70
2017,02,16,17,55,8.60